Location: Burbank
(38.7788°N, 114.0429°W)
Time: 20:39:53
(UTC+00:00)

Vanguard 2 Rocket - Pass Details

Date: 15 May 2026
Orbit: 553 x 3286 km, 32.9° (Epoch: 6 June)

Event Time Altitude Azimuth Distance (km) Brightness Sun altitude
Rises 01:14:08 0° 283° (WNW) 7,174 13.4 15.2°
Reaches altitude 10° 01:19:41 10° 275° (W) 6,229 13.7 14.1°
Maximum altitude 01:35:41 32° 222° (SW) 4,310 10.8 11.1°
Drops below altitude 10° 01:48:42 10° 166° (SSE) 5,015 10.4 8.6°
Sets 01:52:38 0° 156° (SSE) 5,657 10.6 7.9°
